W5SDC Weather Reports


Display with metric or nautical units.
time (UTC)temp
F
wind
direction
speed
MPH
gust
MPH
rain 1hr
in
rain 24hr
in
rain mn
in
humidity
%
barometer
mb
20260504151031 70 210 10.0 13.0 0.00 0.00 0.00 77 1015.8
20260504150519 71 203 11.0 16.0 0.00 0.00 0.00 77 1015.8
20260504141018 70 183 10.0 15.0 0.00 0.00 0.00 77 1015.8
20260504140525 69 175 7.0 16.0 0.00 0.00 0.00 78 1015.8
20260504130551 65 149 7.0 9.0 0.00 0.00 0.00 83 1015.8
20260504110525 60 224 5.0 8.0 0.00 0.00 0.00 88 1015.5
20260504100531 61 174 6.0 9.0 0.00 0.00 0.00 86 1015.6
20260504081529 62 155 5.0 6.0 0.00 0.00 0.00 82 1016.0
20260504081018 62 185 5.0 8.0 0.00 0.00 0.00 82 1016.2
20260504080525 62 184 5.0 8.0 0.00 0.00 0.00 82 1016.2
20260504050524 66 173 8.0 10.0 0.00 0.00 0.00 68 1018.2
20260504045519 66 171 7.0 9.0 0.00 0.00 0.00 66 1018.1
20260504045026 66 177 5.0 7.0 0.00 0.00 0.00 64 1018.3
20260504044532 66 187 6.0 9.0 0.00 0.00 0.00 63 1018.4
20260504044021 66 161 6.0 9.0 0.00 0.00 0.00 62 1018.4
20260504043527 67 174 6.0 8.0 0.00 0.00 0.00 62 1018.4
20260504043015 67 165 6.0 10.0 0.00 0.00 0.00 62 1018.4
20260504042522 67 180 6.0 11.0 0.00 0.00 0.00 61 1018.4
20260504042029 67 159 7.0 11.0 0.00 0.00 0.00 60 1018.4
20260504041517 67 156 6.0 11.0 0.00 0.00 0.00 59 1018.4
20260504041144 68 146 6.0 11.0 0.00 0.00 0.00 57 1018.4
20260504040530 68 161 7.0 9.0 0.00 0.00 0.00 57 1018.4
20260504040019 67 146 7.0 10.0 0.00 0.00 0.00 57 1018.4
20260504035525 67 157 5.0 9.0 0.00 0.00 0.00 57 1018.4
20260504035032 67 168 4.0 6.0 0.00 0.00 0.00 57 1018.4
20260504034520 67 154 4.0 5.0 0.00 0.00 0.00 57 1018.4
20260504034027 67 145 4.0 5.0 0.00 0.00 0.00 57 1018.4
20260504033515 67 157 3.0 5.0 0.00 0.00 0.00 56 1018.4
20260504033022 67 156 3.0 5.0 0.00 0.00 0.00 56 1018.4
20260504032528 67 156 3.0 5.0 0.00 0.00 0.00 56 1018.2
20260504032016 67 165 4.0 5.0 0.00 0.00 0.00 56 1018.2
20260504031523 68 187 4.0 6.0 0.00 0.00 0.00 56 1018.3
20260504031029 68 162 3.0 5.0 0.00 0.00 0.00 56 1018.4
20260504030518 68 161 3.0 4.0 0.00 0.00 0.00 56 1018.4
20260504030024 68 174 3.0 5.0 0.00 0.00 0.00 56 1018.4
20260504025531 68 193 3.0 5.0 0.00 0.00 0.00 56 1018.4
20260504025019 68 168 4.0 6.0 0.00 0.00 0.00 56 1018.4
20260504024526 68 172 3.0 5.0 0.00 0.00 0.00 56 1018.4
20260504024033 68 184 3.0 5.0 0.00 0.00 0.00 56 1018.3
20260504023521 68 173 3.0 5.0 0.00 0.00 0.00 56 1018.1
20260504023028 68 180 3.0 4.0 0.00 0.00 0.00 55 1018.1
20260504022516 68 153 3.0 5.0 0.00 0.00 0.00 55 1018.3
20260504022023 69 157 3.0 5.0 0.00 0.00 0.00 55 1018.4
20260504021549 69 150 3.0 4.0 0.00 0.00 0.00 55 1018.3
20260504021018 69 163 3.0 5.0 0.00 0.00 0.00 54 1018.2
20260504020545 69 165 4.0 5.0 0.00 0.00 0.00 54 1018.2
20260504020051 69 183 3.0 5.0 0.00 0.00 0.00 54 1017.9
20260504015539 69 175 2.0 4.0 0.00 0.00 0.00 53 1017.9
20260504015046 70 186 3.0 5.0 0.00 0.00 0.00 53 1017.8
20260504014532 70 179 3.0 4.0 0.00 0.00 0.00 52 1017.7
20260504014021 70 171 3.0 4.0 0.00 0.00 0.00 52 1017.7
20260504013527 70 164 3.0 5.0 0.00 0.00 0.00 51 1017.7
20260504013015 71 158 3.0 5.0 0.00 0.00 0.00 51 1017.7
20260504012522 71 182 3.0 6.0 0.00 0.00 0.00 50 1017.7
20260504012029 71 161 4.0 6.0 0.00 0.00 0.00 49 1017.7
20260504011517 72 159 4.0 6.0 0.00 0.00 0.00 49 1017.7
20260504011023 72 156 4.0 6.0 0.00 0.00 0.00 49 1017.7
20260504010530 72 173 4.0 5.0 0.00 0.00 0.00 48 1017.7
20260504010059 72 148 3.0 5.0 0.00 0.00 0.00 47 1017.6
20260504005525 73 154 5.0 7.0 0.00 0.00 0.00 47 1017.6
20260504005032 73 163 4.0 6.0 0.00 0.00 0.00 47 1017.7
20260504004520 73 170 4.0 6.0 0.00 0.00 0.00 47 1017.7
20260504004027 74 178 4.0 7.0 0.00 0.00 0.00 46 1017.7
20260504003515 74 183 5.0 6.0 0.00 0.00 0.00 46 1017.8
20260504003022 74 196 5.0 8.0 0.00 0.00 0.00 46 1017.8
20260504002528 75 168 5.0 8.0 0.00 0.00 0.00 45 1017.9
20260504002016 75 173 6.0 9.0 0.00 0.00 0.00 45 1017.9
20260504001523 75 171 6.0 11.0 0.00 0.00 0.00 45 1018.0
20260504001030 75 161 6.0 8.0 0.00 0.00 0.00 45 1018.1
20260504000558 75 183 6.0 10.0 0.00 0.00 0.00 45 1018.1
20260504000025 75 173 6.0 9.0 0.00 0.00 0.00 45 1018.4
20260503235532 75 174 5.0 9.0 0.00 0.00 0.00 45 1018.4
20260503235039 76 163 8.0 11.0 0.00 0.00 0.00 44 1018.3
20260503234606 76 158 7.0 8.0 0.00 0.00 0.00 43 1018.2
20260503234033 77 143 7.0 9.0 0.00 0.00 0.00 43 1018.3
20260503233521 77 181 6.0 9.0 0.00 0.00 0.00 43 1018.4
20260503233028 77 168 5.0 7.0 0.00 0.00 0.00 43 1018.4
20260503232516 77 199 5.0 11.0 0.00 0.00 0.00 43 1018.4
20260503232023 77 167 6.0 9.0 0.00 0.00 0.00 43 1018.4
20260503231529 77 157 8.0 11.0 0.00 0.00 0.00 43 1018.3
20260503231018 77 145 6.0 9.0 0.00 0.00 0.00 43 1018.2
20260503230545 77 177 6.0 8.0 0.00 0.00 0.00 43 1018.2
20260503230031 78 162 4.0 9.0 0.00 0.00 0.00 43 1018.4
20260503225519 78 181 6.0 9.0 0.00 0.00 0.00 41 1018.4
20260503225026 78 142 6.0 8.0 0.00 0.00 0.00 40 1018.5
20260503224537 79 145 6.0 8.0 0.00 0.00 0.00 41 1018.5
20260503224021 79 155 8.0 12.0 0.00 0.00 0.00 40 1018.6
20260503223527 79 198 8.0 11.0 0.00 0.00 0.00 40 1018.7
20260503223016 79 199 7.0 10.0 0.00 0.00 0.00 40 1018.7
20260503222522 79 160 6.0 8.0 0.00 0.00 0.00 40 1018.7
20260503222029 79 173 7.0 9.0 0.00 0.00 0.00 40 1018.7
20260503221517 79 183 8.0 10.0 0.00 0.00 0.00 40 1018.8
20260503221024 79 196 5.0 10.0 0.00 0.00 0.00 39 1018.9
20260503220530 79 181 8.0 13.0 0.00 0.00 0.00 39 1018.9
20260503220019 80 171 7.0 11.0 0.00 0.00 0.00 39 1019.1
20260503215545 80 179 7.0 11.0 0.00 0.00 0.00 40 1019.1
20260503215032 80 170 7.0 11.0 0.00 0.00 0.00 41 1019.1
20260503214520 79 169 10.0 12.0 0.00 0.00 0.00 40 1019.1
20260503214027 79 157 8.0 11.0 0.00 0.00 0.00 41 1019.2
20260503213515 79 192 8.0 11.0 0.00 0.00 0.00 41 1019.6
20260503213021 79 172 8.0 11.0 0.00 0.00 0.00 41 1019.6
20260503212548 79 184 7.0 11.0 0.00 0.00 0.00 40 1019.6
20260503212017 80 169 8.0 12.0 0.00 0.00 0.00 40 1019.6
20260503211523 80 151 8.0 12.0 0.00 0.00 0.00 40 1019.7
20260503211030 79 137 7.0 9.0 0.00 0.00 0.00 40 1020.0
20260503210518 79 150 8.0 12.0 0.00 0.00 0.00 40 1020.0
20260503210025 79 168 9.0 12.0 0.00 0.00 0.00 39 1020.2
20260503205531 80 139 8.0 14.0 0.00 0.00 0.00 39 1020.2
20260503205040 80 184 7.0 10.0 0.00 0.00 0.00 39 1020.2
20260503204526 80 176 7.0 11.0 0.00 0.00 0.00 39 1020.3
20260503204033 80 151 9.0 13.0 0.00 0.00 0.00 38 1020.4
20260503203541 79 139 7.0 10.0 0.00 0.00 0.00 38 1020.6
20260503203027 80 164 8.0 12.0 0.00 0.00 0.00 38 1020.6
20260503202516 79 154 8.0 11.0 0.00 0.00 0.00 38 1020.7
20260503202023 80 147 7.0 11.0 0.00 0.00 0.00 36 1020.7
20260503201549 80 163 7.0 9.0 0.00 0.00 0.00 38 1020.8
20260503201038 80 133 7.0 9.0 0.00 0.00 0.00 38 1020.9
20260503200524 80 139 8.0 13.0 0.00 0.00 0.00 36 1020.9
20260503200031 80 150 7.0 11.0 0.00 0.00 0.00 37 1021.1
20260503195539 80 146 8.0 11.0 0.00 0.00 0.00 37 1021.1
20260503195026 80 159 8.0 12.0 0.00 0.00 0.00 37 1021.1
20260503194532 80 152 7.0 9.0 0.00 0.00 0.00 38 1021.1
20260503194101 80 164 7.0 10.0 0.00 0.00 0.00 39 1021.2
20260503193547 80 164 7.0 10.0 0.00 0.00 0.00 38 1021.3
20260503193015 80 133 8.0 13.0 0.00 0.00 0.00 39 1021.3
20260503192542 80 136 6.0 9.0 0.00 0.00 0.00 39 1021.5
20260503192029 80 126 6.0 7.0 0.00 0.00 0.00 38 1021.5
20260503191517 79 154 8.0 15.0 0.00 0.00 0.00 37 1021.6
20260503191024 79 148 8.0 13.0 0.00 0.00 0.00 39 1021.6
20260503190530 80 159 8.0 14.0 0.00 0.00 0.00 40 1021.6
20260503190018 80 137 7.0 12.0 0.00 0.00 0.00 40 1021.8
20260503185545 80 158 7.0 9.0 0.00 0.00 0.00 39 1021.8
20260503185032 81 164 6.0 9.0 0.00 0.00 0.00 40 1022.0
20260503184520 80 170 5.0 8.0 0.00 0.00 0.00 40 1022.2
20260503184027 80 172 5.0 7.0 0.00 0.00 0.00 39 1022.2
20260503183515 79 179 8.0 15.0 0.00 0.00 0.00 39 1022.4
20260503183022 79 173 7.0 9.0 0.00 0.00 0.00 39 1022.4
20260503182528 79 209 8.0 10.0 0.00 0.00 0.00 39 1022.5
20260503182036 79 190 6.0 11.0 0.00 0.00 0.00 40 1022.5
20260503181523 79 177 8.0 10.0 0.00 0.00 0.00 39 1022.7
20260503181030 80 192 5.0 8.0 0.00 0.00 0.00 39 1022.9
20260503180518 79 182 5.0 10.0 0.00 0.00 0.00 40 1022.9
20260503180025 79 178 6.0 10.0 0.00 0.00 0.00 40 1023.0
20260503175531 79 180 7.0 10.0 0.00 0.00 0.00 40 1023.0
20260503175019 79 161 9.0 15.0 0.00 0.00 0.00 40 1023.0
20260503174526 79 168 6.0 12.0 0.00 0.00 0.00 41 1023.1
20260503174032 79 155 7.0 12.0 0.00 0.00 0.00 40 1023.1
20260503173521 79 187 7.0 11.0 0.00 0.00 0.00 41 1023.2
20260503173028 78 191 7.0 11.0 0.00 0.00 0.00 41 1023.2
20260503172516 79 188 6.0 10.0 0.00 0.00 0.00 43 1023.4
20260503172022 78 207 6.0 8.0 0.00 0.00 0.00 44 1023.5
20260503171529 78 199 7.0 9.0 0.00 0.00 0.00 45 1023.5
20260503171017 77 178 6.0 10.0 0.00 0.00 0.00 45 1023.5
20260503170524 78 187 10.0 13.0 0.00 0.00 0.00 45 1023.5